Hourly Weather Bolshoe Mihalkino

Today, 30 July, Friday

Time Temperature Precipitation Wind Pressure Humidity
00:00 +17°C° 0 mm 2 mps 737 mmHg 85%
01:00 +16°C° 0 mm 2 mps 737 mmHg 86%
02:00 +16°C° 0 mm 2 mps 737 mmHg 86%
03:00 +16°C° 0 mm 2 mps 737 mmHg 83%
04:00 +16°C° 0 mm 2 mps 737 mmHg 80%
05:00 +16°C° 0 mm 3 mps 737 mmHg 77%
06:00 +17°C° 0 mm 3 mps 737 mmHg 73%
07:00 +18°C° 0 mm 4 mps 737 mmHg 69%
08:00 +18°C° 0 mm 4 mps 737 mmHg 65%
09:00 +20°C° 0 mm 4 mps 736 mmHg 57%
10:00 +21°C° 0 mm 5 mps 736 mmHg 49%
11:00 +23°C° 0 mm 5 mps 736 mmHg 40%
12:00 +23°C° 0 mm 5 mps 736 mmHg 40%
13:00 +23°C° 0 mm 5 mps 735 mmHg 40%
14:00 +23°C° 0 mm 5 mps 735 mmHg 40%
15:00 +23°C° 0 mm 5 mps 735 mmHg 42%
16:00 +22°C° 0 mm 5 mps 735 mmHg 44%
17:00 +22°C° 0 mm 5 mps 734 mmHg 46%
18:00 +21°C° 0.1 mm 4 mps 734 mmHg 53%
19:00 +19°C° 0.1 mm 4 mps 734 mmHg 60%
20:00 +18°C° 0.1 mm 4 mps 733 mmHg 66%
21:00 +17°C° 0.2 mm 5 mps 733 mmHg 67%
22:00 +16°C° 0.2 mm 6 mps 732 mmHg 68%
23:00 +16°C° 0.2 mm 7 mps 732 mmHg 69%

Tomorrow, 31 July, Saturday

Time Temperature Precipitation Wind Pressure Humidity
00:00 +15°C° 1.5 mm 6 mps 732 mmHg 77%
01:00 +15°C° 1.5 mm 6 mps 732 mmHg 86%
02:00 +14°C° 1.5 mm 5 mps 732 mmHg 94%
03:00 +14°C° 0 mm 5 mps 732 mmHg 94%
04:00 +14°C° 0 mm 4 mps 732 mmHg 95%
05:00 +14°C° 0 mm 4 mps 733 mmHg 95%
06:00 +15°C° 0.1 mm 4 mps 733 mmHg 91%
07:00 +16°C° 0.1 mm 5 mps 733 mmHg 87%
08:00 +17°C° 0.1 mm 5 mps 734 mmHg 83%
09:00 +19°C° 0.1 mm 5 mps 734 mmHg 76%
10:00 +20°C° 0.1 mm 5 mps 735 mmHg 69%
11:00 +22°C° 0.1 mm 5 mps 735 mmHg 62%
12:00 +22°C° 0.3 mm 5 mps 735 mmHg 64%
13:00 +22°C° 0.3 mm 5 mps 736 mmHg 65%
14:00 +22°C° 0.3 mm 5 mps 736 mmHg 67%
15:00 +22°C° 0.2 mm 5 mps 736 mmHg 69%
16:00 +22°C° 0.2 mm 4 mps 736 mmHg 70%
17:00 +22°C° 0.2 mm 4 mps 737 mmHg 71%
18:00 +20°C° 0.1 mm 3 mps 737 mmHg 77%
19:00 +19°C° 0.1 mm 3 mps 737 mmHg 82%
20:00 +18°C° 0.1 mm 2 mps 737 mmHg 87%
21:00 +17°C° 0 mm 2 mps 737 mmHg 88%
22:00 +17°C° 0 mm 2 mps 737 mmHg 89%
23:00 +16°C° 0 mm 2 mps 737 mmHg 90%

Day after tomorrow, 1 August, Sunday

Time Temperature Precipitation Wind Pressure Humidity
00:00 +16°C° 0 mm 2 mps 737 mmHg 90%
01:00 +16°C° 0 mm 2 mps 736 mmHg 90%
02:00 +16°C° 0 mm 3 mps 736 mmHg 90%
03:00 +16°C° 0.1 mm 3 mps 736 mmHg 91%
04:00 +16°C° 0.1 mm 3 mps 736 mmHg 92%
05:00 +16°C° 0.1 mm 3 mps 736 mmHg 93%
06:00 +17°C° 0.2 mm 3 mps 736 mmHg 91%
07:00 +18°C° 0.2 mm 4 mps 736 mmHg 90%
08:00 +19°C° 0.2 mm 4 mps 736 mmHg 89%
09:00 +20°C° 0.2 mm 4 mps 736 mmHg 76%
10:00 +22°C° 0.2 mm 5 mps 736 mmHg 63%
11:00 +24°C° 0.2 mm 6 mps 736 mmHg 51%
12:00 +24°C° 0.1 mm 6 mps 736 mmHg 52%
13:00 +24°C° 0.1 mm 6 mps 736 mmHg 53%
14:00 +23°C° 0.1 mm 6 mps 736 mmHg 54%
15:00 +23°C° 0.1 mm 5 mps 736 mmHg 55%
16:00 +23°C° 0.1 mm 5 mps 737 mmHg 55%
17:00 +23°C° 0.1 mm 4 mps 737 mmHg 56%
18:00 +22°C° 0 mm 4 mps 737 mmHg 62%
19:00 +20°C° 0 mm 3 mps 737 mmHg 68%
20:00 +19°C° 0 mm 3 mps 737 mmHg 74%
21:00 +18°C° 0 mm 2 mps 737 mmHg 77%
22:00 +17°C° 0 mm 2 mps 737 mmHg 81%
23:00 +16°C° 0 mm 1 mps 737 mmHg 85%

2 August, Monday

Time Temperature Precipitation Wind Pressure Humidity
00:00 +16°C° 0 mm 1 mps 737 mmHg 85%
01:00 +15°C° 0 mm 1 mps 737 mmHg 86%
02:00 +15°C° 0 mm 1 mps 737 mmHg 86%
03:00 +15°C° 0.1 mm 1 mps 737 mmHg 88%
04:00 +15°C° 0.1 mm 1 mps 737 mmHg 91%
05:00 +15°C° 0.1 mm 1 mps 737 mmHg 93%
06:00 +16°C° 0 mm 2 mps 737 mmHg 88%
07:00 +17°C° 0 mm 2 mps 737 mmHg 82%
08:00 +18°C° 0 mm 2 mps 736 mmHg 77%
09:00 +19°C° 0 mm 2 mps 736 mmHg 70%
10:00 +20°C° 0 mm 2 mps 736 mmHg 64%
11:00 +21°C° 0 mm 2 mps 736 mmHg 58%
12:00 +23°C° 0.1 mm 2 mps 736 mmHg 55%
13:00 +23°C° 0.1 mm 2 mps 736 mmHg 52%
14:00 +23°C° 0.1 mm 2 mps 735 mmHg 49%
15:00 +23°C° 0.1 mm 2 mps 735 mmHg 55%
16:00 +21°C° 0.1 mm 2 mps 735 mmHg 60%
17:00 +20°C° 0.1 mm 2 mps 735 mmHg 65%
18:00 +19°C° 0.2 mm 2 mps 735 mmHg 73%
19:00 +17°C° 0.2 mm 2 mps 735 mmHg 80%
20:00 +16°C° 0.2 mm 2 mps 735 mmHg 88%
21:00 +15°C° 0 mm 2 mps 735 mmHg 90%
22:00 +14°C° 0 mm 2 mps 735 mmHg 92%
23:00 +13°C° 0 mm 2 mps 736 mmHg 94%

3 August, Tuesday

Time Temperature Precipitation Wind Pressure Humidity
00:00 +12°C° 0 mm 3 mps 736 mmHg 94%
01:00 +12°C° 0 mm 3 mps 736 mmHg 94%
02:00 +12°C° 0 mm 3 mps 736 mmHg 94%
03:00 +12°C° 0 mm 3 mps 736 mmHg 95%
04:00 +11°C° 0 mm 3 mps 737 mmHg 96%
05:00 +11°C° 0 mm 3 mps 737 mmHg 97%
06:00 +13°C° 0 mm 3 mps 737 mmHg 89%
07:00 +14°C° 0 mm 4 mps 738 mmHg 80%
08:00 +17°C° 0 mm 4 mps 738 mmHg 72%
09:00 +17°C° 0.1 mm 4 mps 739 mmHg 69%
10:00 +18°C° 0.1 mm 4 mps 739 mmHg 65%
11:00 +19°C° 0.1 mm 4 mps 740 mmHg 62%
12:00 +19°C° 0.1 mm 4 mps 740 mmHg 58%
13:00 +20°C° 0.1 mm 3 mps 740 mmHg 53%
14:00 +21°C° 0.1 mm 3 mps 741 mmHg 49%
15:00 +21°C° 0 mm 3 mps 741 mmHg 48%
16:00 +21°C° 0 mm 3 mps 741 mmHg 48%
17:00 +21°C° 0 mm 3 mps 741 mmHg 47%
18:00 +19°C° 0 mm 2 mps 742 mmHg 54%
19:00 +18°C° 0 mm 2 mps 742 mmHg 60%
20:00 +16°C° 0 mm 1 mps 742 mmHg 67%
21:00 +16°C° 0 mm 1 mps 742 mmHg 67%
22:00 +15°C° 0 mm 1 mps 743 mmHg 67%
23:00 +14°C° 0 mm 1 mps 743 mmHg 66%

4 August, Wednesday

Time Temperature Precipitation Wind Pressure Humidity
00:00 +13°C° 0 mm 1 mps 743 mmHg 67%
01:00 +12°C° 0 mm 1 mps 744 mmHg 68%
02:00 +11°C° 0 mm 1 mps 744 mmHg 69%
03:00 +11°C° 0 mm 1 mps 744 mmHg 71%
04:00 +11°C° 0 mm 1 mps 744 mmHg 72%
05:00 +11°C° 0 mm 1 mps 744 mmHg 73%
06:00 +13°C° 0 mm 1 mps 744 mmHg 69%
07:00 +15°C° 0 mm 1 mps 744 mmHg 64%
08:00 +18°C° 0 mm 1 mps 745 mmHg 59%
09:00 +20°C° 0 mm 1 mps 745 mmHg 54%
10:00 +22°C° 0 mm 1 mps 744 mmHg 49%
11:00 +24°C° 0 mm 1 mps 744 mmHg 43%
12:00 +23°C° 0.1 mm 2 mps 744 mmHg 49%
13:00 +21°C° 0.1 mm 2 mps 744 mmHg 54%
14:00 +21°C° 0.1 mm 3 mps 744 mmHg 60%
15:00 +20°C° 0.3 mm 2 mps 744 mmHg 65%
16:00 +20°C° 0.3 mm 2 mps 744 mmHg 70%
17:00 +19°C° 0.3 mm 2 mps 744 mmHg 75%
18:00 +18°C° 0.3 mm 2 mps 744 mmHg 79%
19:00 +18°C° 0.3 mm 1 mps 744 mmHg 84%
20:00 +16°C° 0.3 mm 1 mps 744 mmHg 89%
21:00 +15°C° 0 mm 1 mps 745 mmHg 91%
22:00 +14°C° 0 mm 1 mps 745 mmHg 93%
23:00 +13°C° 0 mm 2 mps 745 mmHg 94%
Show more

We Need Your Consent

Meteoprog and our Service Providers may store and access personal data such as cookies, device identifiers or other similar technologies on your device and process such data to personalise content and ads, as well as provide social media features and to analyse the traffic.

  • Store and/or access information on your device

    Cookies, device identifiers or other information can be stored or accessed on your device for the purposes indicated above.

  • Personalised ads and content, ad and content measurement, audience insights, and products development

    Ads and content can be personalised based on a profile. More data can be added to better personalise ads and content. Ad and content performance can be measured. Insights about the audience who saw the ads and content can be derived. Such data can be used to develop or improve user’s experience, systems and software.

By clicking ‘I Agree’ you will allow the use of indicated cookies, device identifiers, web beacons or other similar technologies. Your settings can be changed in the browser on your device.

For certain purposes, legitimate interests may be relied on, rather than consent. You can read more about this in our Privacy and Cookie Policy.